Orbital Elements at Epoch 2459200.5 (2020-Dec-17.0) TDB
Reference: JPL 24 (heliocentric ecliptic J2000)
Element | Value | Uncertainty (1-sigma) | Units |
e | .2717150397724437 | 3.7381e-08 | |
a | 3.965353518210738 | 3.4658e-08 | au |
q | 2.887907329298308 | 1.4781e-07 | au |
i | 3.917134642462044 | 5.0709e-06 | deg |
node | 84.70107188051912 | 6.6364e-05 | deg |
peri | 260.1055187041993 | 6.7002e-05 | deg |
M | 96.58813720861114 | 9.6171e-06 | deg |
tp | 2458426.675307650602 (2018-Nov-04.17530765) | 7.1492e-05 | TDB |
period | 2884.172914983468 7.90 | 3.7812e-05 1.035e-07 | d yr |
n | .1248191459429413 | 1.6364e-09 | deg/d |
Q | 5.042799707123168 | 4.4075e-08 | au |
|
| | Orbit Determination Parameters
Additional Information
|